Wind_Speed
16 16 16 16 16 17 20 23 24 26 27 28 31 33 34 35 37 40 41 41 40 39 38 37 37 36 34 35 34 31 29 28 26 25 24 24 22 22 22 21 22 23 24 26 27 30 30
19 20 20 20 20 20 20 19 21 25 27 28 29 30 32 34 37 38 39 40 42 43 43 41 39 38 38 37 34 32 30 29 29 27 26 26 25 24 26 26 27 27 28 29 29 31 31
24 23 23 23 23 23 23 24 24 23 24 27 30 30 29 31 32 35 39 40 40 40 40 40 40 39 36 35 33 32 31 32 32 30 28 28 27 27 27 28 29 28 29 32 34 32 31
24 24 29 29 28 27 26 26 28 29 28 25 27 31 31 30 30 30 33 34 38 40 40 39 37 37 35 36 34 33 32 33 32 30 29 29 28 29 30 29 28 26 28 32 33 30 27
33 30 27 27 31 31 29 30 31 32 33 32 30 27 30 32 30 29 29 32 33 34 36 38 38 37 36 35 34 32 32 31 31 28 28 29 28 29 29 28 27 26 26 29 31 28 26
37 37 35 32 30 31 34 33 34 34 36 37 35 33 29 29 31 30 28 29 30 32 33 34 35 35 37 34 32 31 29 29 27 26 28 27 28 27 25 26 25 24 26 29 29 26 22
43 43 41 39 36 33 33 34 35 37 36 39 39 37 36 32 30 31 31 32 30 30 30 31 32 34 35 33 30 28 28 29 25 22 24 25 26 23 24 22 22 23 26 27 28 25 20
47 48 47 45 41 38 37 38 38 38 40 37 40 40 41 39 34 32 34 36 32 27 27 28 28 29 29 29 29 28 27 26 20 19 23 22 19 20 22 19 18 22 23 22 23 23 20
51 50 51 50 49 46 43 42 42 41 42 40 39 40 42 43 40 38 38 35 33 28 28 28 27 26 28 27 27 26 24 23 21 22 22 21 20 20 17 15 15 18 20 21 24 22 24
52 53 53 54 54 51 50 51 47 45 45 45 42 41 39 43 43 42 43 36 35 34 32 29 26 28 25 25 26 26 24 22 20 20 20 21 17 16 18 15 16 17 19 16 23 25 23
54 54 55 57 57 55 57 54 51 47 46 46 47 44 42 40 44 46 43 41 38 38 35 31 28 27 27 25 27 26 24 20 20 21 20 18 18 17 15 16 15 17 18 17 19 23 24
54 57 59 59 59 60 59 58 51 47 46 45 49 50 47 44 43 45 44 45 42 39 38 34 30 28 26 26 26 24 22 22 23 23 22 21 19 16 15 14 16 19 20 19 22 22 24
51 57 60 62 61 61 59 53 51 51 51 51 52 52 52 49 47 47 45 44 44 42 38 37 33 30 29 29 27 24 24 24 22 22 23 22 20 15 13 12 16 18 17 18 21 22 24
50 48 49 52 54 53 55 54 53 54 53 54 56 57 56 56 55 52 49 46 45 41 39 39 39 35 32 31 29 27 26 25 24 25 27 24 19 15 11 13 15 13 15 21 23 23 24
52 52 52 53 55 56 55 54 52 49 48 48 53 57 58 61 60 57 56 56 51 41 40 41 41 38 35 34 32 30 29 27 25 26 29 22 20 17 13 15 17 13 15 20 22 22 25
53 55 56 56 56 53 50 48 45 43 42 43 44 50 57 61 63 61 59 64 56 47 45 42 42 41 38 35 34 32 31 29 26 28 25 23 22 19 18 17 19 16 18 20 22 25 28
54 54 55 51 48 46 42 40 38 40 39 40 41 43 50 56 62 64 65 66 61 52 49 45 43 42 42 38 36 33 32 30 28 27 27 25 24 23 22 21 19 20 20 22 26 27 29
51 50 45 40 40 36 36 35 36 37 37 36 37 40 45 53 59 65 70 67 56 56 54 48 45 42 42 40 38 36 34 35 35 34 34 30 27 27 26 25 23 22 22 24 30 32 30
41 36 35 33 33 32 32 33 34 33 33 31 33 37 42 46 52 61 70 64 65 59 56 50 47 44 43 42 40 39 37 38 39 38 36 33 31 30 29 28 27 26 25 29 33 37 31
32 31 28 28 29 27 27 29 28 27 28 28 32 35 39 41 48 54 62 62 62 59 56 52 49 46 45 44 44 44 43 42 42 41 40 37 35 33 32 30 25 27 30 33 34 37 37
26 25 27 26 23 22 24 24 23 24 25 26 29 33 34 38 44 51 58 55 55 56 56 52 49 49 49 47 45 47 47 48 47 46 45 42 39 37 34 29 29 26 27 24 27 34 37
24 23 20 19 18 19 22 21 20 21 22 23 25 29 31 36 42 49 54 51 52 51 54 54 50 52 52 52 51 48 49 51 51 49 47 45 41 41 40 33 33 29 28 28 31 35 38
24 20 16 14 14 16 18 18 18 19 20 21 23 25 29 31 39 46 49 49 50 51 52 56 55 54 54 54 54 53 51 49 48 48 46 45 41 43 40 37 37 33 31 33 39 39 36
22 19 16 13 12 13 13 14 14 16 19 20 22 23 27 29 33 41 46 47 48 51 51 54 57 58 57 56 58 57 54 52 48 45 42 43 45 42 42 40 41 43 40 39 36 39 42
22 18 16 14 11 9 10 12 12 14 16 18 18 20 24 29 31 34 41 45 46 47 52 53 55 59 61 62 61 59 57 57 53 50 46 45 46 44 43 45 43 46 44 41 37 37 39
24 21 17 13 9 9 8 10 11 12 14 17 17 18 21 25 28 32 36 38 44 46 47 54 57 56 62 65 63 60 58 58 57 54 50 47 46 46 47 48 48 50 48 43 38 43 36
26 23 19 14 11 9 9 9 10 10 12 15 17 17 19 23 26 30 33 34 37 44 47 48 53 58 58 57 59 60 62 61 59 57 56 54 49 49 49 50 51 52 52 46 41 42 35
28 26 22 17 14 11 9 9 10 10 10 13 15 17 19 22 25 28 27 30 31 35 40 43 49 53 58 61 61 60 57 57 57 57 55 53 52 54 53 54 53 56 53 49 46 44 39
31 28 24 20 18 14 11 10 11 10 10 11 13 16 18 22 25 26 26 26 26 29 32 38 36 38 46 51 55 61 60 57 55 57 56 54 54 56 57 56 53 51 51 51 50 45 42
Wind_Direction
253 250 244 245 244 244 249 251 251 250 249 248 247 248 249 249 249 250 252 252 252 254 256 260 262 265 268 275 280 277 276 277 276 274 272 272 271 271 272 271 274 276 277 278 283 286 287
259 254 251 252 254 256 257 253 251 253 255 252 250 250 249 250 250 250 251 252 253 255 257 260 261 264 269 272 272 272 271 272 274 276 276 275 271 268 268 269 269 271 274 279 280 284 289
253 254 254 255 253 254 255 257 260 259 256 256 255 252 254 252 252 251 251 252 252 254 256 258 260 262 264 265 267 268 268 271 274 274 274 274 271 270 272 273 274 277 280 280 281 284 288
258 258 255 255 255 256 260 259 257 259 261 260 258 256 252 252 252 254 253 255 252 252 253 255 256 258 260 263 266 266 268 270 271 270 269 269 268 269 269 272 275 276 279 281 283 285 288
260 267 270 266 262 260 259 263 263 262 259 259 258 258 256 252 250 252 254 254 254 253 252 252 253 255 259 261 263 263 267 266 266 267 266 266 267 267 269 272 274 277 277 278 280 284 290
262 270 268 270 273 270 265 268 268 265 263 259 258 255 255 255 252 250 253 253 252 251 250 250 248 249 252 255 257 262 263 263 265 261 261 264 264 265 268 267 268 271 271 274 279 286 288
263 266 269 269 272 276 278 273 275 269 267 262 258 256 252 253 256 252 250 252 249 250 251 252 253 252 251 249 252 256 260 262 264 264 259 257 259 264 263 263 266 269 271 275 281 287 288
260 263 264 270 272 274 277 274 277 273 267 266 258 254 253 251 252 253 249 249 251 253 252 249 248 248 248 249 246 248 253 257 258 251 251 252 258 257 258 264 267 269 272 277 279 282 285
257 263 262 267 271 274 279 280 278 272 268 262 261 257 252 251 250 252 251 249 249 249 248 248 245 246 247 247 248 244 246 249 246 244 250 254 249 258 265 264 264 270 276 280 281 282 279
256 259 261 264 269 273 277 279 277 272 266 260 257 255 254 250 248 248 250 248 246 244 244 246 244 242 244 241 243 243 242 242 244 246 239 244 253 252 256 265 270 274 273 279 283 280 277
258 259 261 265 269 272 276 277 277 270 266 257 255 251 250 252 247 247 247 247 243 243 243 243 242 243 242 245 245 243 240 236 234 240 248 254 246 260 271 268 269 271 283 282 275 275 277
258 260 262 264 267 272 276 278 274 265 258 255 254 247 245 248 248 244 244 244 241 241 241 241 240 239 239 240 240 241 242 238 237 243 243 249 254 253 258 267 277 282 284 286 278 280 281
261 262 261 263 268 271 274 273 269 268 259 252 251 247 240 242 244 240 241 240 242 240 239 240 239 237 237 236 237 240 244 245 244 246 247 243 245 250 262 286 288 288 291 286 281 281 281
262 267 266 266 268 270 274 274 271 271 263 256 250 245 241 237 238 238 239 239 240 242 239 237 237 235 230 235 239 241 243 241 240 244 242 238 237 242 272 291 291 290 286 287 289 284 278
263 265 267 268 271 277 277 277 274 269 260 253 246 240 236 237 235 235 237 238 241 241 241 236 236 236 235 233 236 238 241 240 242 242 240 235 239 248 266 289 299 287 284 288 291 286 275
264 266 269 272 276 277 276 273 270 266 260 253 246 241 235 234 231 232 235 237 238 239 242 239 235 234 235 236 237 237 240 243 248 245 243 247 253 259 271 286 298 290 288 286 287 284 281
264 267 271 273 272 271 269 267 267 264 260 255 247 241 234 231 228 227 231 234 235 238 240 239 237 234 234 232 236 236 239 238 242 246 245 251 253 259 267 279 291 282 282 278 285 283 288
263 266 265 263 264 264 264 265 267 264 258 253 245 238 234 229 227 227 230 234 235 236 239 236 234 233 234 234 234 235 237 239 238 238 242 247 257 263 269 276 283 275 269 273 281 280 287
256 255 257 256 259 261 264 267 268 259 254 250 240 233 231 228 228 227 231 231 230 231 233 233 230 230 232 233 232 235 235 240 245 249 251 250 260 265 267 272 277 269 267 273 278 276 279
246 249 248 255 260 263 267 271 267 258 254 246 237 232 228 225 226 227 232 231 230 229 227 230 228 228 230 233 233 233 234 238 243 248 252 253 256 260 263 271 267 260 270 277 276 274 274
237 240 249 253 255 264 274 275 266 259 254 243 237 234 229 228 229 229 234 233 230 227 224 226 226 227 227 228 233 237 238 240 242 246 250 254 256 255 260 262 258 264 270 268 277 277 271
231 241 241 247 253 270 284 280 269 260 249 242 237 234 231 229 228 229 235 235 231 226 221 220 223 227 229 229 230 234 239 240 242 245 249 253 257 260 260 258 252 254 260 261 271 277 284
226 226 236 247 258 271 285 282 268 259 248 242 235 232 232 230 228 229 233 235 231 229 221 223 222 225 228 231 232 233 236 241 245 247 250 251 252 255 260 251 251 244 256 262 270 274 282
219 224 233 245 256 270 287 289 273 258 250 244 235 228 232 232 229 230 233 235 235 231 227 224 225 224 227 229 231 234 236 239 243 245 247 248 251 250 253 253 246 248 265 267 274 277 272
215 219 231 238 250 268 289 297 280 263 253 246 236 228 229 232 232 232 235 235 236 233 229 229 228 226 224 226 229 230 233 236 237 242 245 247 247 251 246 249 252 253 261 268 277 279 269
214 219 224 233 247 266 287 299 296 273 258 253 243 232 231 232 232 233 235 235 235 237 234 230 231 231 231 231 231 233 234 235 236 238 240 246 251 253 253 256 253 256 259 265 270 273 269
215 217 223 233 248 262 275 296 305 293 268 256 251 241 235 236 234 233 236 238 235 236 237 234 232 234 235 237 239 241 241 242 242 244 244 240 241 244 246 249 254 259 265 267 264 271 273
216 221 227 235 244 256 272 284 301 311 291 267 259 251 241 239 238 239 238 239 239 237 238 238 236 234 236 237 234 237 238 238 242 248 253 257 257 253 253 253 253 256 260 263 262 267 267
220 223 226 233 241 248 262 282 292 306 310 287 267 258 248 240 241 241 242 244 243 243 239 240 241 239 237 237 238 239 242 244 244 243 246 251 255 257 257 260 259 261 264 262 262 264 264
Height
10920 10920 10920 10922 10923 10924 10925 10927 10928 10928 10930 10931 10933 10934 10936 10937 10940 10942 10944 10946 10948 10950 10951 10952 10954 10955 10958 10958 10960 10961 10961 10961 10961 10962 10964 10964 10966 10965 10965 10965 10964 10964 10962 10960 10958 10956 10956
10916 10916 10917 10917 10918 10919 10920 10921 10922 10923 10925 10926 10926 10928 10929 10930 10932 10934 10936 10938 10940 10942 10944 10946 10947 10949 10951 10952 10954 10955 10956 10956 10956 10958 10959 10960 10961 10961 10960 10960 10960 10960 10958 10955 10954 10953 10950
10910 10910 10911 10912 10913 10914 10915 10915 10916 10917 10918 10920 10921 10921 10922 10923 10924 10926 10928 10930 10932 10934 10936 10938 10941 10941 10944 10945 10947 10949 10950 10950 10951 10953 10954 10953 10954 10954 10954 10954 10954 10956 10955 10950 10948 10949 10948
10904 10905 10905 10906 10907 10907 10908 10908 10909 10910 10912 10913 10914 10915 10916 10917 10918 10919 10920 10922 10923 10926 10928 10930 10933 10934 10938 10938 10941 10942 10944 10945 10945 10947 10948 10947 10948 10949 10949 10949 10950 10952 10950 10945 10943 10944 10944
10897 10898 10898 10899 10900 10900 10901 10902 10902 10903 10904 10905 10907 10908 10909 10910 10912 10913 10914 10915 10916 10918 10920 10922 10925 10928 10930 10932 10934 10936 10938 10938 10939 10941 10942 10942 10942 10942 10943 10944 10945 10946 10945 10941 10938 10941 10942
10888 10890 10891 10891 10892 10892 10893 10894 10894 10894 10895 10897 10899 10901 10902 10903 10905 10906 10908 10908 10909 10909 10911 10914 10917 10920 10921 10925 10927 10930 10931 10931 10933 10935 10935 10936 10936 10936 10938 10939 10940 10940 10938 10935 10934 10937 10939
10879 10880 10881 10882 10883 10884 10885 10885 10886 10886 10887 10888 10890 10892 10894 10896 10898 10899 10901 10900 10902 10903 10906 10909 10912 10913 10914 10918 10921 10923 10923 10924 10928 10930 10929 10930 10929 10932 10932 10934 10935 10934 10932 10931 10931 10933 10934
10867 10869 10871 10872 10874 10875 10876 10876 10877 10877 10878 10878 10880 10883 10885 10887 10891 10893 10892 10892 10895 10900 10901 10902 10905 10907 10908 10912 10916 10916 10917 10919 10922 10923 10922 10924 10927 10927 10927 10930 10931 10929 10928 10928 10927 10929 10930
10855 10857 10859 10861 10862 10863 10865 10866 10867 10867 10868 10869 10870 10872 10876 10878 10882 10884 10882 10886 10890 10893 10894 10896 10899 10901 10903 10906 10908 10911 10912 10914 10916 10917 10919 10920 10921 10922 10924 10926 10927 10926 10924 10925 10923 10924 10924
10843 10845 10847 10849 10850 10851 10852 10854 10855 10856 10857 10858 10860 10863 10865 10868 10872 10874 10874 10879 10882 10884 10886 10890 10894 10895 10898 10900 10902 10905 10907 10910 10911 10912 10914 10916 10918 10919 10919 10922 10923 10922 10920 10923 10919 10917 10918
10830 10832 10834 10836 10837 10838 10839 10840 10842 10843 10844 10845 10848 10852 10855 10857 10861 10863 10867 10870 10874 10876 10880 10884 10888 10890 10892 10896 10898 10899 10902 10906 10908 10907 10910 10912 10914 10915 10918 10918 10918 10917 10916 10917 10916 10914 10913
10817 10819 10820 10822 10823 10824 10825 10826 10827 10828 10830 10832 10834 10839 10843 10846 10849 10852 10857 10859 10863 10868 10873 10878 10882 10886 10888 10890 10893 10896 10898 10901 10902 10903 10906 10906 10909 10912 10914 10916 10915 10914 10912 10911 10910 10908 10906
10804 10805 10807 10808 10809 10810 10811 10811 10811 10812 10814 10817 10819 10824 10830 10835 10837 10842 10846 10849 10853 10859 10866 10871 10876 10880 10883 10885 10889 10892 10894 10897 10900 10901 10902 10903 10905 10908 10911 10913 10912 10910 10909 10907 10904 10902 10901
10791 10793 10793 10794 10795 10796 10796 10796 10795 10795 10796 10798 10802 10808 10815 10819 10824 10832 10836 10839 10841 10851 10859 10863 10866 10872 10877 10880 10884 10887 10889 10893 10896 10897 10896 10899 10903 10907 10909 10909 10908 10908 10906 10903 10900 10899 10897
10778 10780 10781 10782 10781 10781 10781 10779 10779 10777 10779 10780 10784 10790 10798 10803 10811 10819 10824 10825 10831 10843 10848 10853 10859 10865 10871 10874 10877 10882 10884 10888 10890 10892 10891 10897 10900 10903 10906 10905 10905 10904 10903 10900 10897 10895 10894
10765 10766 10767 10768 10768 10767 10766 10765 10764 10763 10764 10765 10769 10774 10781 10787 10795 10804 10810 10809 10822 10834 10838 10845 10851 10858 10864 10869 10872 10876 10878 10883 10885 10887 10890 10893 10896 10898 10900 10901 10900 10899 10899 10896 10892 10891 10888
10752 10753 10753 10754 10753 10754 10753 10753 10753 10751 10752 10753 10756 10761 10767 10773 10780 10790 10793 10795 10811 10826 10828 10837 10844 10851 10856 10862 10866 10869 10872 10876 10879 10882 10885 10886 10888 10891 10894 10895 10896 10895 10894 10891 10887 10884 10882
10739 10740 10741 10741 10742 10743 10743 10742 10741 10740 10740 10742 10746 10750 10753 10759 10766 10773 10775 10787 10808 10814 10819 10829 10836 10842 10848 10854 10859 10862 10865 10868 10870 10873 10875 10880 10882 10885 10887 10888 10890 10890 10889 10887 10883 10879 10877
10727 10729 10731 10732 10733 10734 10733 10732 10731 10730 10731 10733 10736 10739 10742 10748 10755 10760 10761 10781 10787 10801 10810 10819 10827 10834 10839 10844 10850 10854 10858 10860 10862 10865 10868 10873 10875 10877 10881 10881 10882 10883 10882 10880 10877 10873 10871
10718 10721 10723 10724 10725 10725 10724 10722 10721 10721 10722 10724 10726 10729 10733 10740 10744 10749 10750 10765 10777 10791 10800 10807 10818 10825 10831 10835 10841 10844 10848 10851 10854 10857 10858 10863 10867 10869 10873 10874 10875 10875 10873 10872 10870 10866 10866
10711 10713 10716 10717 10717 10717 10716 10714 10712 10713 10714 10716 10718 10721 10727 10732 10736 10740 10740 10756 10768 10781 10791 10798 10807 10814 10819 10825 10830 10833 10838 10841 10844 10847 10850 10855 10859 10863 10865 10866 10867 10866 10864 10864 10863 10860 10859
10704 10707 10709 10710 10711 10710 10708 10706 10705 10706 10707 10709 10712 10715 10720 10724 10728 10731 10734 10745 10758 10768 10780 10789 10795 10801 10806 10813 10820 10823 10824 10828 10833 10837 10842 10845 10851 10854 10856 10860 10860 10858 10857 10857 10856 10855 10854
10698 10701 10703 10704 10705 10705 10703 10700 10700 10700 10701 10703 10706 10709 10712 10716 10720 10722 10727 10734 10746 10757 10769 10776 10785 10789 10795 10800 10807 10812 10814 10818 10823 10828 10832 10836 10841 10844 10848 10851 10853 10852 10851 10852 10851 10849 10848
10692 10695 10697 10699 10700 10699 10698 10695 10695 10695 10696 10698 10701 10703 10706 10709 10712 10715 10719 10726 10734 10746 10757 10765 10771 10779 10785 10790 10794 10799 10803 10809 10814 10818 10823 10826 10828 10834 10837 10841 10844 10842 10843 10843 10843 10841 10841
10687 10690 10692 10694 10695 10694 10693 10692 10691 10691 10691 10692 10695 10698 10700 10702 10705 10709 10712 10718 10724 10733 10744 10752 10759 10765 10770 10776 10779 10786 10792 10796 10802 10806 10812 10815 10818 10824 10828 10829 10834 10833 10833 10834 10835 10834 10832
10681 10684 10687 10689 10690 10690 10690 10689 10687 10687 10687 10688 10690 10692 10694 10696 10700 10702 10704 10709 10715 10722 10731 10740 10746 10752 10757 10762 10769 10775 10780 10783 10790 10796 10801 10806 10810 10814 10818 10818 10821 10820 10822 10826 10829 10822 10828
10675 10678 10681 10684 10685 10686 10686 10686 10685 10684 10684 10684 10685 10688 10689 10690 10693 10695 10698 10702 10709 10712 10718 10726 10733 10739 10744 10752 10760 10766 10771 10776 10782 10787 10791 10795 10798 10802 10805 10808 10810 10809 10810 10815 10818 10816 10818
10668 10672 10676 10678 10680 10682 10682 10682 10681 10681 10680 10680 10680 10682 10684 10685 10686 10688 10692 10696 10701 10705 10709 10715 10719 10726 10730 10736 10745 10749 10758 10766 10773 10777 10781 10787 10790 10792 10793 10795 10798 10798 10801 10804 10806 10807 10808
10661 10666 10670 10673 10675 10676 10678 10678 10678 10678 10677 10676 10677 10677 10678 10679 10681 10683 10686 10690 10694 10697 10702 10706 10710 10714 10721 10726 10733 10737 10744 10753 10761 10765 10770 10774 10776 10777 10779 10782 10786 10788 10790 10791 10793 10798 10799